Regional Weather Roundup
Issued by NWS State College, PA

Home | Current Version | Previous Version | Text Only | Print | Product List | Glossary On
Versions: 1 2 3 4 5 6 7 8 9 10 11 12 13 14 15 16 17 18 19 20 21 22 23 24 25 26 27 28 29 30 31 32 33 34 35 36 37 38 39 40 41 42 43 44 45 46 47 48 49 50
000
ASUS41 KCTP 051810
RWRCTP

REGIONAL WEATHER ROUNDUP
NATIONAL WEATHER SERVICE STATE COLLEGE PA
200 PM EDT TUE MAY 05 2015

Note: "fair" indicates few or no clouds below 12,000 feet with no
significant weather and/or obstructions to visibility.

* = STATION THAT DOES NOT REPORT PRECIPITATION /E.G. RAIN...SNOW...ETC/
    THUNDER OR FOG.

PAZ002>004-007>009-013>016-020>023-029>032-051900-
WESTERN PENNSYLVANIA

CITY           SKY/WX    TMP DP  RH WIND       PRES   REMARKS
ERIE           LGT RAIN  58  54  86 NE7       30.27S FOG
MEADVILLE      LGT RAIN  65  58  78 SW7       30.27S
FRANKLIN*      CLOUDY    64  55  72 S7        30.29F
NEW CASTLE     FAIR      70  63  78 CALM      30.28F
BEAVER COUNTY  PTSUNNY   68  61  77 CALM      30.28F
BUTLER*        CLOUDY    66  61  82 W6        30.31S
PITTSBURGH INT CLOUDY    69  60  73 SW6       30.28S
PITTSBURGH     PTSUNNY   69  58  67 SW9       30.28S
INDIANA*       CLOUDY    68  61  77 W7        30.32S
LATROBE        PTSUNNY   70  59  68 W12       30.30F
WASHINGTON CO* PTSUNNY   70  61  73 NW5       30.30F
$$

PAZ004>006-010>012-017>019-024>028-033>037-041-042-045-046-049>053-051900-
CENTRAL PENNSYLVANIA

CITY           SKY/WX    TMP DP  RH WIND       PRES   REMARKS
BRADFORD       CLOUDY    69  49  48 CALM      30.27S
DUBOIS         CLOUDY    69  56  62 W6        30.28F
CLEARFIELD     CLOUDY    71  57  61 SW5       30.27F
JOHNSTOWN      PTSUNNY   67  57  70 VRB7      30.30F
ALTOONA        PTSUNNY   68  60  75 CALM      30.29F
STATE COLLEGE  CLOUDY    68  59  73 SW8       30.27F
WILLIAMSPORT   CLOUDY    75  52  44 W6        30.21F
SELINSGROVE    LGT RAIN  73  59  61 SW5       30.25F
FT INDIANTOWN  DRIZZLE   75  55  50 W6        30.24S
CAPITAL CITY   PTSUNNY   77  58  51 W8        30.24F
HARRISBURG     CLOUDY    76  59  55 W7        30.23F
YORK           MOSUNNY   77  60  55 VRB6      30.24F
$$

PAZ038>040-043-044-047-048-054-055-060>062-067>071-051900-
EASTERN PENNSYLVANIA

CITY           SKY/WX    TMP DP  RH WIND       PRES   REMARKS
SCRANTON       PTSUNNY   77  49  37 NW7       30.24F
MOUNT POCONO   PTSUNNY   74  49  41 NW8G18    30.26F
ALLENTOWN      MOSUNNY   81  55  40 W5        30.20F
QUAKERTOWN*    PTCLDY    81  57  44 SW6       30.22F
READING        PTSUNNY   78  55  44 W12       30.21F
LANCASTER      PTSUNNY   76  56  49 NW7       30.23F
COATESVILLE    PTCLDY    77  57  50 W7        30.24F
POTTSTOWN      PTSUNNY   79  56  45 SW7       30.22F
BLUE BELL      SUNNY     82  55  39 NW3       30.20F
DOYLESTOWN     MOSUNNY   83  56  39 N7        30.20F
WILLOW GROVE   NOT AVBL
NORTH PHILA    MOSUNNY   84  54  35 VRB7      30.22F
PHILADELPHIA   MOSUNNY   81  55  40 SW7       30.21F
$$


USA.gov is the U.S. government's official web portal to all federal, state and local government web resources and services.